Погода в Шабердино

Россия / Удмуртская Республика     56°54′57″N   52°59′59″E
В апреле 2022 года жителям России запретили посещать сайт meteo.paraplan.net по решению Генеральной прокуратуры. Аудитория сайта уменьшилась в 10 раз. Владельцы сайта не видят смысла в поддержке погодного сервера в таких условиях. Сайт будет закрыт в октябре.
темп.,
°C
ветер,
м/с
пор.,
м/с
влажн.,
%
обл.,
%
осадки,
мм/ч
давл.,
гПа
погр.,
м
25 сентября, вс
вс2501:00+11зсз2692100 0.0 1009173
04:00+9зсз229565 0.0 101130
07:00+9сз129475 0.0 101046
10:00+14ссв1274100 0.0 1008457
13:00+16ссв1373100 0.1 1006692
16:00+14всв51176100 2.0 10021054
19:00+12всв81790100 6.8 9991124
22:00+10ю61190100 12.3 1000673
26 сентября, пн
пн2601:00+9ююв3691100 0.1 1003569
04:00+8ююз3693100 0.5 1005448
07:00+8юз2690100 0.1 1006479
10:00+10юз2381100 0.1 1008464
13:00+11в0172100 0.0 1009712
16:00+8всв4688100 0.3 1011408
19:00+5всв4790100 0.0 1013433
22:00+4в4791100 0.0 1014479
27 сентября, вт
вт2701:00+4в3590100 0.0 1015472
04:00+3в3691100 0.0 1015494
07:00+3в3797100 0.4 1016441
10:00+2в3799100 1.5 1017417
13:00+2в3799100 0.6 1018286
16:00+3в2698100 1.5 1019380
19:00+3всв3798100 1.0 1019437
22:00+2всв3797100 1.3 1020336
28 сентября, ср
ср2801:00+2всв2699100 0.6 1020360
04:00+2всв3693100 0.7 1020643
07:00−1св389135 0.0 1021320
10:00+3всв47725 0.0 1022657
13:00+6всв46526 0.0 10221315
16:00+6всв465080 0.0 10221573
19:00+2всв410726 0.0 1024647
22:000всв310835 0.0 1024470
29 сентября, чт
чт2901:00−1всв411785 0.0 1024454
04:00−1св412805 0.0 1024440
07:00−2всв413755 0.0 1024547
10:00+3всв612545 0.0 1024906
13:00+6всв69455 0.0 10241277
16:00+6всв59495 0.0 10241352
19:00+3всв512625 0.0 1026679
22:00+1всв412715 0.0 1028594